TimeCDT,TemperatureF,Dew PointF,Humidity,Sea Level PressureIn,VisibilityMPH,Wind Direction,Wind SpeedMPH,Gust SpeedMPH,PrecipitationIn,Events,Conditions,WindDirDegrees,DateUTC
12:53 AM,73.0,61.0,66,29.99,10.0,NNE,4.6,-,N/A,,Clear,30,2013-08-18 05:53:00
1:53 AM,72.0,63.0,73,29.99,10.0,NE,3.5,-,N/A,,Clear,40,2013-08-18 06:53:00
2:53 AM,68.0,64.0,87,29.99,10.0,NNE,4.6,-,N/A,,Clear,20,2013-08-18 07:53:00
3:53 AM,69.1,64.0,84,29.99,10.0,Calm,Calm,-,N/A,,Clear,0,2013-08-18 08:53:00
4:53 AM,68.0,64.9,90,29.99,10.0,Calm,Calm,-,N/A,,Clear,0,2013-08-18 09:53:00
5:53 AM,66.9,64.9,93,29.99,9.0,Calm,Calm,-,N/A,,Clear,0,2013-08-18 10:53:00
6:53 AM,64.9,64.0,97,30.01,5.0,Calm,Calm,-,N/A,,Clear,0,2013-08-18 11:53:00
7:53 AM,68.0,66.0,93,30.03,7.0,North,3.5,-,N/A,,Clear,10,2013-08-18 12:53:00
8:53 AM,73.9,69.1,85,30.04,9.0,NNE,3.5,-,N/A,,Clear,20,2013-08-18 13:53:00
9:53 AM,79.0,70.0,74,30.04,10.0,Variable,5.8,-,N/A,,Clear,0,2013-08-18 14:53:00
10:53 AM,82.0,69.1,65,30.04,10.0,Variable,3.5,-,N/A,,Scattered Clouds,0,2013-08-18 15:53:00
11:53 AM,86.0,68.0,55,30.04,10.0,Variable,5.8,-,N/A,,Scattered Clouds,0,2013-08-18 16:53:00
12:53 PM,88.0,66.0,48,30.02,10.0,Variable,4.6,-,N/A,,Partly Cloudy,0,2013-08-18 17:53:00
1:53 PM,89.1,66.0,46,30.02,10.0,East,8.1,-,N/A,,Scattered Clouds,100,2013-08-18 18:53:00
2:53 PM,90.0,64.9,43,30.00,10.0,NNE,4.6,-,N/A,,Clear,20,2013-08-18 19:53:00
3:53 PM,90.0,63.0,40,29.99,10.0,ENE,9.2,-,N/A,,Mostly Cloudy,70,2013-08-18 20:53:00
4:53 PM,91.9,61.0,35,29.97,10.0,Calm,Calm,-,N/A,,Partly Cloudy,0,2013-08-18 21:53:00
5:53 PM,90.0,61.0,38,29.96,10.0,SSE,3.5,-,N/A,,Mostly Cloudy,150,2013-08-18 22:53:00
6:53 PM,89.1,63.0,42,29.96,10.0,NE,3.5,-,N/A,,Clear,50,2013-08-18 23:53:00
7:53 PM,82.0,66.9,60,29.96,10.0,Calm,Calm,-,N/A,,Clear,0,2013-08-19 00:53:00
8:53 PM,78.1,68.0,71,29.97,10.0,Calm,Calm,-,N/A,,Scattered Clouds,0,2013-08-19 01:53:00
9:53 PM,79.0,66.0,64,29.99,10.0,Calm,Calm,-,N/A,,Mostly Cloudy,0,2013-08-19 02:53:00
10:53 PM,75.9,66.9,74,29.99,10.0,East,4.6,-,N/A,,Overcast,80,2013-08-19 03:53:00
11:53 PM,77.0,66.0,69,29.99,10.0,ENE,3.5,-,N/A,,Overcast,70,2013-08-19 04:53:00